{"data":{"norad_id":61595,"intl_designator":"2024-188B","name":"ONEWEB-0687","alt_names":[],"object_type":"PAYLOAD","status":"ACTIVE","operator":null,"country":"UK","launch_date":"2024-10-20","launch_site_code":"AFWTR","launch_vehicle":null,"mission":null,"orbit_class":"UNKNOWN","rcs_meters":null,"size_class":null,"mass_kg":null,"dimensions":null,"purposes":["comms"],"wikipedia_slug":null,"has_3d_model":false,"image_url":null,"decayed_at":null,"tle_current":{"epoch":"2026-09-19T13:02:37.694112Z","epoch_age_seconds":100994,"freshness":"FRESH","line1":"1 61595U 24188B   26262.54349183  .00000043  00000+0  78872-4 0  9996","line2":"2 61595  87.9197 347.1358 0001981 115.9196 244.2140 13.17651200 98326","mean_motion":13.176512,"eccentricity":0.0001981,"inclination_deg":87.9197,"raan_deg":347.1358,"arg_perigee_deg":115.9196,"mean_anomaly_deg":244.214,"bstar":7.8872e-5,"rev_number":9832,"period_min":109.28537081741,"perigee_km":1192.2048498305,"apogee_km":1195.2048135642,"semimajor_km":7571.8418316974,"source":"CELESTRAK","updated_at":"2026-09-20T09:00:44.798181Z"}}}